When you browse on this site, cookies collect data to enhance your experience and personalize the content and advertising you see.
Visit our Privacy Policy to learn more. By continuing to use the site, you agree to this use of cookies and data.
  • en France
  • Liste des pays
  • À 7 jours
  • Température de l'eau
  • Carte satellitaire
  • Carte météo
  • Widgets météo
  • user-avatar
    Se connecter

    Météo par heure à Baraki Barak

    Ce jour, 24 Janvier, Jeudi

    Heure Température Précipitation Vent Pression Humidité
    00:00 -9°C° 0 mm 1 m/s 595 mmHg 65%
    01:00 -9°C° 0 mm 1 m/s 595 mmHg 65%
    02:00 -10°C° 0 mm 1 m/s 595 mmHg 65%
    03:00 -10°C° 0 mm 1 m/s 595 mmHg 64%
    04:00 -10°C° 0 mm 1 m/s 595 mmHg 63%
    05:00 -10°C° 0 mm 1 m/s 595 mmHg 62%
    06:00 -11°C° 0 mm 1 m/s 596 mmHg 61%
    07:00 -11°C° 0 mm 1 m/s 596 mmHg 59%
    08:00 -11°C° 0 mm 1 m/s 596 mmHg 58%
    09:00 -9°C° 0 mm 1 m/s 596 mmHg 56%
    10:00 -7°C° 0 mm 1 m/s 597 mmHg 53%
    11:00 -6°C° 0 mm 1 m/s 597 mmHg 51%
    12:00 -4°C° 0 mm 1 m/s 597 mmHg 50%
    13:00 -3°C° 0 mm 1 m/s 596 mmHg 50%
    14:00 -3°C° 0 mm 1 m/s 596 mmHg 49%
    15:00 -3°C° 0 mm 1 m/s 596 mmHg 52%
    16:00 -4°C° 0 mm 1 m/s 595 mmHg 54%
    17:00 -6°C° 0 mm 1 m/s 595 mmHg 57%
    18:00 -7°C° 0 mm 1 m/s 595 mmHg 56%
    19:00 -8°C° 0 mm 1 m/s 596 mmHg 56%
    20:00 -9°C° 0 mm 1 m/s 596 mmHg 55%
    21:00 -9°C° 0 mm 1 m/s 596 mmHg 54%
    22:00 -9°C° 0 mm 1 m/s 596 mmHg 52%
    23:00 -9°C° 0 mm 1 m/s 596 mmHg 51%

    Demain, 25 Janvier, Vendredi

    Heure Température Précipitation Vent Pression Humidité
    00:00 -10°C° 0 mm 1 m/s 596 mmHg 51%
    01:00 -10°C° 0 mm 1 m/s 595 mmHg 50%
    02:00 -10°C° 0 mm 1 m/s 595 mmHg 50%
    03:00 -11°C° 0 mm 1 m/s 595 mmHg 49%
    04:00 -11°C° 0 mm 1 m/s 595 mmHg 49%
    05:00 -11°C° 0 mm 1 m/s 594 mmHg 49%
    06:00 -11°C° 0 mm 1 m/s 594 mmHg 48%
    07:00 -13°C° 0 mm 2 m/s 595 mmHg 47%
    08:00 -13°C° 0 mm 2 m/s 595 mmHg 47%
    09:00 -9°C° 0 mm 1 m/s 595 mmHg 46%
    10:00 -8°C° 0 mm 1 m/s 595 mmHg 46%
    11:00 -6°C° 0 mm 1 m/s 596 mmHg 46%
    12:00 -4°C° 0 mm 1 m/s 595 mmHg 45%
    13:00 -3°C° 0 mm 1 m/s 595 mmHg 44%
    14:00 -2°C° 0 mm 1 m/s 595 mmHg 43%
    15:00 -4°C° 0 mm 0 m/s 594 mmHg 45%
    16:00 -5°C° 0 mm 0 m/s 594 mmHg 47%
    17:00 -5°C° 0 mm 0 m/s 594 mmHg 50%
    18:00 -6°C° 0 mm 1 m/s 594 mmHg 50%
    19:00 -7°C° 0 mm 1 m/s 595 mmHg 50%
    20:00 -8°C° 0 mm 1 m/s 595 mmHg 50%
    21:00 -8°C° 0 mm 1 m/s 596 mmHg 49%
    22:00 -9°C° 0 mm 1 m/s 596 mmHg 49%
    23:00 -9°C° 0 mm 1 m/s 596 mmHg 49%

    Après-demain, 26 Janvier, Samedi

    Heure Température Précipitation Vent Pression Humidité
    00:00 -9°C° 0 mm 1 m/s 595 mmHg 49%
    01:00 -10°C° 0 mm 1 m/s 595 mmHg 48%
    02:00 -10°C° 0 mm 1 m/s 595 mmHg 47%
    03:00 -10°C° 0 mm 1 m/s 595 mmHg 46%
    04:00 -10°C° 0 mm 1 m/s 595 mmHg 44%
    05:00 -10°C° 0 mm 1 m/s 595 mmHg 43%
    06:00 -10°C° 0 mm 1 m/s 595 mmHg 42%
    07:00 -10°C° 0 mm 1 m/s 596 mmHg 41%
    08:00 -9°C° 0 mm 1 m/s 596 mmHg 41%
    09:00 -8°C° 0 mm 1 m/s 597 mmHg 40%
    10:00 -6°C° 0 mm 1 m/s 597 mmHg 38%
    11:00 -4°C° 0 mm 1 m/s 598 mmHg 37%
    12:00 -3°C° 0 mm 1 m/s 597 mmHg 38%
    13:00 -2°C° 0 mm 1 m/s 597 mmHg 38%
    14:00 -3°C° 0 mm 0 m/s 597 mmHg 38%
    15:00 -3°C° 0 mm 0 m/s 596 mmHg 42%
    16:00 -4°C° 0 mm 0 m/s 596 mmHg 45%
    17:00 -3°C° 0 mm 1 m/s 596 mmHg 49%
    18:00 -4°C° 0 mm 1 m/s 596 mmHg 50%
    19:00 -4°C° 0 mm 1 m/s 597 mmHg 51%
    20:00 -6°C° 0 mm 1 m/s 597 mmHg 52%
    21:00 -6°C° 0 mm 1 m/s 597 mmHg 52%
    22:00 -6°C° 0 mm 1 m/s 597 mmHg 53%
    23:00 -7°C° 0 mm 1 m/s 597 mmHg 54%

    27 Janvier, Dimanche

    Heure Température Précipitation Vent Pression Humidité
    00:00 -7°C° 0 mm 1 m/s 597 mmHg 55%
    01:00 -7°C° 0 mm 1 m/s 597 mmHg 55%
    02:00 -8°C° 0 mm 1 m/s 597 mmHg 56%
    03:00 -8°C° 0 mm 1 m/s 596 mmHg 57%
    04:00 -8°C° 0 mm 1 m/s 596 mmHg 58%
    05:00 -9°C° 0 mm 1 m/s 596 mmHg 59%
    06:00 -9°C° 0 mm 1 m/s 596 mmHg 60%
    07:00 -9°C° 0 mm 1 m/s 597 mmHg 61%
    08:00 -9°C° 0 mm 1 m/s 597 mmHg 62%
    09:00 -7°C° 0 mm 1 m/s 597 mmHg 60%
    10:00 -4°C° 0 mm 1 m/s 598 mmHg 59%
    11:00 -3°C° 0 mm 1 m/s 598 mmHg 57%
    12:00 -2°C° 0 mm 1 m/s 598 mmHg 56%
    13:00 -1°C° 0 mm 1 m/s 597 mmHg 55%
    14:00 0°C° 0 mm 1 m/s 597 mmHg 53%
    15:00 -1°C° 0 mm 1 m/s 597 mmHg 56%
    16:00 -1°C° 0 mm 1 m/s 596 mmHg 59%
    17:00 -2°C° 0 mm 1 m/s 596 mmHg 61%
    18:00 -3°C° 0 mm 1 m/s 596 mmHg 61%
    19:00 -4°C° 0 mm 1 m/s 597 mmHg 60%
    20:00 -4°C° 0 mm 1 m/s 597 mmHg 60%
    21:00 -6°C° 0 mm 1 m/s 597 mmHg 59%
    22:00 -6°C° 0 mm 1 m/s 597 mmHg 58%
    23:00 -7°C° 0 mm 2 m/s 598 mmHg 57%

    28 Janvier, Lundi

    Heure Température Précipitation Vent Pression Humidité
    00:00 -7°C° 0 mm 2 m/s 597 mmHg 57%
    01:00 -7°C° 0 mm 2 m/s 597 mmHg 57%
    02:00 -8°C° 0 mm 2 m/s 597 mmHg 57%
    03:00 -8°C° 0 mm 2 m/s 597 mmHg 57%
    04:00 -8°C° 0 mm 2 m/s 597 mmHg 58%
    05:00 -8°C° 0 mm 2 m/s 597 mmHg 58%
    06:00 -8°C° 0 mm 2 m/s 597 mmHg 57%
    07:00 -8°C° 0 mm 2 m/s 597 mmHg 56%
    08:00 -8°C° 0 mm 2 m/s 597 mmHg 55%
    09:00 -6°C° 0 mm 2 m/s 598 mmHg 54%
    10:00 -4°C° 0 mm 2 m/s 598 mmHg 54%
    11:00 -2°C° 0 mm 2 m/s 598 mmHg 53%
    12:00 -1°C° 0 mm 2 m/s 598 mmHg 53%
    13:00 +1°C° 0 mm 2 m/s 598 mmHg 53%
    14:00 +2°C° 0 mm 2 m/s 597 mmHg 52%
    15:00 +1°C° 0 mm 2 m/s 597 mmHg 54%
    16:00 +1°C° 0 mm 2 m/s 596 mmHg 55%
    17:00 -1°C° 0 mm 2 m/s 596 mmHg 57%
    18:00 -2°C° 0 mm 2 m/s 596 mmHg 55%
    19:00 -3°C° 0 mm 2 m/s 596 mmHg 54%
    20:00 -3°C° 0 mm 2 m/s 597 mmHg 53%
    21:00 -3°C° 0 mm 2 m/s 597 mmHg 52%
    22:00 -3°C° 0 mm 2 m/s 597 mmHg 52%
    23:00 -3°C° 0 mm 2 m/s 596 mmHg 52%

    29 Janvier, Mardi

    Heure Température Précipitation Vent Pression Humidité
    00:00 -3°C° 0 mm 2 m/s 596 mmHg 53%
    01:00 -3°C° 0 mm 2 m/s 596 mmHg 54%
    02:00 -3°C° 0 mm 2 m/s 595 mmHg 55%
    03:00 -3°C° 0 mm 2 m/s 595 mmHg 55%
    04:00 -3°C° 0 mm 2 m/s 595 mmHg 56%
    05:00 -3°C° 0 mm 2 m/s 595 mmHg 56%
    06:00 -3°C° 0 mm 2 m/s 595 mmHg 56%
    07:00 -3°C° 0 mm 2 m/s 595 mmHg 56%
    08:00 -3°C° 0 mm 2 m/s 595 mmHg 56%
    09:00 -1°C° 0 mm 2 m/s 595 mmHg 57%
    10:00 +1°C° 0 mm 2 m/s 596 mmHg 57%
    11:00 +3°C° 0 mm 2 m/s 596 mmHg 57%
    12:00 +3°C° 0 mm 2 m/s 596 mmHg 61%
    13:00 +4°C° 0 mm 2 m/s 595 mmHg 64%
    14:00 +4°C° 0 mm 2 m/s 595 mmHg 67%
    15:00 +4°C° 0.1 mm 2 m/s 594 mmHg 70%
    16:00 +3°C° 0.1 mm 2 m/s 594 mmHg 73%
    17:00 +4°C° 0.1 mm 1 m/s 594 mmHg 75%
    18:00 +3°C° 0.4 mm 1 m/s 594 mmHg 79%
    19:00 +3°C° 0.4 mm 1 m/s 594 mmHg 83%
    20:00 +2°C° 0.4 mm 1 m/s 595 mmHg 87%
    21:00 +2°C° 0.8 mm 1 m/s 595 mmHg 88%
    22:00 +2°C° 0.8 mm 1 m/s 595 mmHg 89%
    23:00 +2°C° 0.8 mm 1 m/s 595 mmHg 90%
    Voir plus